1507586400.84,54011,11.06,73116.5,-10.35,-11.45,-11.51,0,*63
1507586402.11,54012,11.06,73124.5,-10.35,-11.33,-11.59,0,*69
1507586403.36,54013,11.06,73138.8,-10.35,-11.45,-11.59,0,*69
1507586404.6,54014,11.06,73138.3,-10.35,-11.45,-11.73,0,*66
1507586405.87,54015,11.06,73138.0,-10.35,-11.51,-11.63,0,*63
1507586407.16,54016,11.06,73142.8,-10.33,-11.51,-11.59,0,*6F
1507586408.43,54017,11.06,73130.0,-10.35,-11.51,-11.63,0,*61
1507586409.72,54018,11.06,73138.3,-10.37,-11.55,-11.67,0,*6C
1507586410.96,54019,11.06,73128.3,-10.35,-11.23,-11.37,0,*6B
1507586412.23,54020,11.06,73138.5,-10.37,-11.41,-11.55,0,*63
1507586413.5,54021,11.06,73134.3,-10.35,-11.51,-11.59,0,*6D
1507586414.79,54022,11.06,73134.5,-10.37,-11.51,-11.63,0,*65
1507586416.06,54023,11.06,73138.8,-10.35,-11.51,-11.59,0,*6F
1507586417.3,54024,11.06,73138.3,-10.35,-11.45,-11.51,0,*65
1507586418.56,54025,11.06,73132.5,-10.35,-11.37,-11.51,0,*61
1507586419.83,54026,11.06,73138.0,-10.35,-11.37,-11.59,0,*6A
1507586421.09,54027,11.06,73134.3,-10.35,-11.51,-11.59,0,*6B
1507586422.39,54028,11.06,73126.8,-10.37,-11.55,-11.63,0,*6B
1507586423.69,54029,11.06,73114.5,-10.37,-11.55,-11.67,0,*6E
1507586424.95,54030,11.06,73112.3,-10.35,-11.51,-11.63,0,*64
1507586426.22,54031,11.06,73116.8,-10.35,-11.51,-11.73,0,*64
1507586427.49,54032,11.06,73126.3,-10.35,-11.51,-11.63,0,*66
1507586428.75,54033,11.06,73128.8,-10.35,-11.51,-11.59,0,*6E
1507586430.01,54034,11.06,73124.8,-10.35,-11.37,-11.59,0,*69
1507586431.28,54035,11.06,73128.3,-10.35,-11.59,-11.59,0,*60
1507586432.52,54036,11.06,73134.0,-10.35,-11.45,-11.51,0,*66
1507586433.77,54037,11.06,73132.0,-10.35,-11.45,-11.59,0,*6F
1507586435.01,54038,11.06,73140.5,-10.35,-11.23,-11.37,0,*68
1507586436.31,54039,11.06,73138.5,-10.37,-11.51,-11.63,0,*6F
1507586437.57,54040,11.06,73136.8,-10.35,-11.51,-11.59,0,*6A
1507586438.82,54041,11.06,73134.3,-10.35,-11.45,-11.59,0,*6E
1507586440.08,54042,11.06,73134.5,-10.35,-11.59,-11.59,0,*60
1507586441.33,54043,11.06,73134.5,-10.35,-11.45,-11.59,0,*6C
1507586442.58,54044,11.06,73136.8,-10.35,-11.45,-11.59,0,*6B
1507586443.87,54045,11.06,73130.0,-10.37,-11.55,-11.67,0,*64
1507586445.14,54046,11.06,73114.8,-10.35,-11.51,-11.63,0,*65
1507586446.41,54047,11.06,73110.0,-10.35,-11.59,-11.63,0,*6C
1507586447.69,54048,11.06,73118.3,-10.35,-11.59,-11.63,0,*63
1507586448.96,54049,11.06,73118.3,-10.35,-11.51,-11.63,0,*6A
1507586450.23,54050,11.06,73124.3,-10.35,-11.59,-11.63,0,*6A
1507586451.5,54051,11.06,73136.8,-10.35,-11.59,-11.63,0,*6B
1507586452.77,54052,11.06,73130.0,-10.35,-11.63,-11.63,0,*61
1507586454.04,54053,11.06,73132.5,-10.35,-11.51,-11.73,0,*60
1507586455.3,54054,11.06,73146.5,-10.35,-11.51,-11.73,0,*67
1507586456.57,54055,11.06,73144.3,-10.35,-11.51,-11.63,0,*67
1507586457.83,54056,11.06,73138.5,-10.35,-11.59,-11.73,0,*6D
1507586459.1,54057,11.06,73134.8,-10.35,-11.59,-11.73,0,*6C
1507586460.37,54058,11.06,73136.5,-10.35,-11.59,-11.63,0,*62
1507586461.65,54059,11.06,73142.3,-10.35,-11.59,-11.63,0,*63
1507586462.91,54060,11.06,73150.0,-10.35,-11.51,-11.63,0,*61
1507586464.19,54061,11.06,73144.3,-10.35,-11.59,-11.63,0,*68
1507586465.48,54062,11.06,73142.8,-10.37,-11.55,-11.67,0,*61
1507586466.77,54063,11.06,73132.0,-10.37,-11.63,-11.77,0,*64
1507586468.07,54064,11.06,73138.3,-10.37,-11.63,-11.73,0,*67
1507586469.34,54065,11.06,73138.8,-10.35,-11.59,-11.73,0,*6D
1507586470.63,54066,11.06,73138.8,-10.37,-11.55,-11.67,0,*65
1507586471.93,54067,11.06,73124.8,-10.37,-11.55,-11.63,0,*60
1507586473.23,54068,11.06,73120.5,-10.37,-11.63,-11.63,0,*6A
1507586474.52,54069,11.06,73116.8,-10.37,-11.63,-11.77,0,*6E
1507586475.79,54070,11.06,73120.3,-10.35,-11.51,-11.63,0,*60
1507586477.06,54071,11.06,73126.0,-10.35,-11.63,-11.73,0,*61
1507586478.33,54072,11.06,73114.0,-10.35,-11.59,-11.73,0,*6B
1507586479.62,54073,11.06,73112.3,-10.37,-11.55,-11.77,0,*60
1507586480.88,54074,11.06,73112.0,-10.35,-11.51,-11.63,0,*64
1507586482.18,54075,11.06,73100.8,-10.37,-11.63,-11.77,0,*63
1507586483.48,54076,11.06,73110.5,-10.37,-11.63,-11.67,0,*61
1507586484.77,54077,11.06,73116.5,-10.37,-11.63,-11.73,0,*65
1507586486.04,54078,11.06,73112.0,-10.35,-11.59,-11.63,0,*60
1507586487.34,54079,11.06,73126.8,-10.37,-11.55,-11.63,0,*6F
1507586488.59,54080,11.06,73138.8,-10.35,-11.45,-11.59,0,*63
1507586489.83,54081,11.06,73142.0,-10.35,-11.45,-11.51,0,*6A
1507586491.09,54082,11.06,73134.3,-10.35,-11.51,-11.59,0,*64
1507586492.39,54083,11.06,73130.5,-10.37,-11.55,-11.67,0,*6E
1507586493.66,54084,11.06,73138.0,-10.35,-11.51,-11.63,0,*6B
1507586494.95,54085,11.06,73134.5,-10.37,-11.55,-11.77,0,*69
1507586496.22,54086,11.06,73144.5,-10.35,-11.51,-11.63,0,*69
1507586497.49,54087,11.06,73144.3,-10.35,-11.51,-11.63,0,*68
1507586498.78,54088,11.06,73140.0,-10.37,-11.55,-11.67,0,*65
1507586500.05,54089,11.06,73132.8,-10.35,-11.59,-11.73,0,*6F
1507586501.34,54090,11.06,73124.5,-10.37,-11.63,-11.77,0,*68
1507586502.6,54091,11.06,73108.8,-10.35,-11.51,-11.73,0,*6E
1507586503.87,54092,11.06,73100.0,-10.35,-11.63,-11.73,0,*6C
1507586505.13,54093,11.06,73106.5,-10.35,-11.37,-11.51,0,*6C
1507586506.38,54094,11.06,73112.3,-10.35,-11.45,-11.59,0,*66
1507586507.64,54095,11.06,73110.8,-10.35,-11.51,-11.51,0,*6A
1507586508.93,54096,11.06,73148.3,-10.37,-11.51,-11.55,0,*6F
1507586510.23,54097,11.06,73144.5,-10.37,-11.37,-11.55,0,*6E
1507586511.47,54098,11.06,73138.8,-10.35,-11.45,-11.59,0,*6A
1507586512.74,54099,11.06,73140.8,-10.35,-11.51,-11.59,0,*6E
1507586514.0,54100,11.06,73144.8,-10.35,-11.51,-11.59,0,*6F
1507586515.27,54101,11.06,73146.0,-10.35,-11.55,-11.59,0,*6A
1507586516.56,54102,11.06,73134.8,-10.37,-11.51,-11.67,0,*62
1507586517.86,54103,11.06,73138.3,-10.37,-11.55,-11.63,0,*63
1507586519.12,54104,11.06,73138.5,-10.35,-11.51,-11.59,0,*6B
1507586520.39,54105,11.06,73142.0,-10.35,-11.51,-11.63,0,*63
1507586521.69,54106,11.06,73136.5,-10.37,-11.63,-11.67,0,*67
1507586522.98,54107,11.06,73122.0,-10.37,-11.63,-11.77,0,*67
1507586524.24,54108,11.06,73126.3,-10.35,-11.51,-11.73,0,*6F
1507586525.54,54109,11.06,73122.8,-10.37,-11.55,-11.67,0,*6D
1507586526.81,54110,11.06,73132.8,-10.35,-11.59,-11.63,0,*6F
1507586528.08,54111,11.06,73140.0,-10.35,-11.51,-11.63,0,*66
1507586529.37,54112,11.06,73136.0,-10.37,-11.55,-11.77,0,*66
1507586530.67,54113,11.06,73134.3,-10.37,-11.63,-11.67,0,*63
1507586531.96,54114,11.06,73108.3,-10.37,-11.55,-11.73,0,*64
1507586533.23,54115,11.06,73114.8,-10.35,-11.63,-11.63,0,*63
1507586534.5,54116,11.06,73134.3,-10.35,-11.59,-11.63,0,*69
1507586535.77,54117,11.06,73132.0,-10.35,-11.59,-11.73,0,*69
1507586537.04,54118,11.06,73140.0,-10.35,-11.59,-11.73,0,*66
1507586538.33,54119,11.06,73132.3,-10.37,-11.55,-11.59,0,*61
1507586539.59,54120,11.06,73130.0,-10.35,-11.51,-11.59,0,*6D
1507586540.89,54121,11.06,73132.8,-10.37,-11.55,-11.63,0,*63
1507586542.17,54122,11.06,73138.5,-10.35,-11.59,-11.63,0,*6E
1507586543.46,54123,11.06,73144.3,-10.37,-11.55,-11.67,0,*65
1507586544.72,54124,11.06,73128.0,-10.35,-11.51,-11.59,0,*69
1507586546.02,54125,11.06,73122.5,-10.37,-11.63,-11.77,0,*67
1507586547.31,54126,11.06,73124.0,-10.37,-11.55,-11.67,0,*60
1507586548.58,54127,11.06,73128.8,-10.35,-11.51,-11.63,0,*63
1507586549.88,54128,11.06,73140.5,-10.37,-11.67,-11.67,0,*6F
1507586551.17,54129,11.06,73132.5,-10.37,-11.55,-11.67,0,*6F
1507586552.42,54130,11.06,73134.3,-10.35,-11.45,-11.63,0,*60
1507586553.72,54131,11.06,73134.8,-10.37,-11.63,-11.67,0,*63
1507586555.02,54132,11.06,73134.3,-10.37,-11.63,-11.67,0,*60
1507586556.32,54133,11.06,73124.8,-10.37,-11.63,-11.67,0,*61
1507586557.58,54134,11.06,73132.0,-10.35,-11.59,-11.73,0,*68
1507586558.85,54135,11.06,73132.3,-10.35,-11.59,-11.73,0,*69
1507586560.12,54136,11.06,73116.3,-10.35,-11.59,-11.63,0,*6B
1507586561.39,54137,11.06,73122.5,-10.35,-11.63,-11.67,0,*67
1507586562.66,54138,11.06,73134.5,-10.35,-11.51,-11.63,0,*6D
1507586563.95,54139,11.06,73128.8,-10.37,-11.55,-11.67,0,*6E
1507586565.22,54140,11.06,73126.3,-10.35,-11.37,-11.59,0,*6B
1507586566.49,54141,11.06,73130.3,-10.37,-11.41,-11.51,0,*61
1507586567.76,54142,11.06,73142.3,-10.37,-11.41,-11.63,0,*63
1507586569.06,54143,11.06,73146.0,-10.37,-11.51,-11.55,0,*66
1507586570.3,54144,11.06,73142.8,-10.35,-11.37,-11.45,0,*62
1507586571.59,54145,11.06,73138.3,-10.37,-11.51,-11.63,0,*65
1507586572.85,54146,11.06,73130.3,-10.35,-11.37,-11.51,0,*65
1507586574.12,54147,11.06,73128.0,-10.35,-11.33,-11.37,0,*60
1507586575.41,54148,11.06,73136.8,-10.37,-11.37,-11.51,0,*69
1507586576.65,54149,11.06,73136.0,-10.35,-11.33,-11.45,0,*6B
1507586577.89,54150,11.06,73142.8,-10.35,-11.45,-11.59,0,*6F
1507586579.14,54151,11.06,73150.8,-10.35,-11.45,-11.51,0,*66
1507586580.39,54152,11.06,73146.0,-10.35,-11.45,-11.51,0,*65
1507586581.68,54153,11.06,73140.3,-10.37,-11.55,-11.67,0,*62
1507586582.95,54154,11.06,73142.0,-10.35,-11.55,-11.63,0,*63
1507586584.22,54155,11.06,73142.0,-10.35,-11.59,-11.59,0,*67
1507586585.52,54156,11.06,73140.3,-10.37,-11.55,-11.55,0,*66
1507586586.78,54157,11.06,73140.3,-10.35,-11.51,-11.59,0,*6D
1507586588.08,54158,11.06,73138.5,-10.37,-11.55,-11.63,0,*6D
1507586589.34,54159,11.06,73128.3,-10.35,-11.51,-11.73,0,*6B
1507586590.64,54160,11.06,73122.3,-10.37,-11.51,-11.63,0,*62
1507586591.9,54161,11.06,73120.5,-10.35,-11.51,-11.51,0,*60
1507586593.15,54162,11.06,73124.0,-10.35,-11.45,-11.63,0,*67
1507586594.4,54163,11.06,73122.8,-10.35,-11.45,-11.59,0,*6F
1507586595.64,54164,11.06,73118.5,-10.35,-11.45,-11.59,0,*68
1507586596.91,54165,11.06,73126.8,-10.35,-11.59,-11.59,0,*64
1507586598.16,54166,11.06,73122.3,-10.35,-11.45,-11.51,0,*62
1507586599.42,54167,11.06,73114.8,-10.35,-11.37,-11.59,0,*6E
1507586600.68,54168,11.06,73112.5,-10.35,-11.33,-11.37,0,*6D
1507586601.97,54169,11.06,73120.8,-10.37,-11.37,-11.51,0,*6A
1507586603.23,54170,11.06,73116.0,-10.35,-11.37,-11.51,0,*60
1507586604.5,54171,11.06,73114.8,-10.37,-11.51,-11.41,0,*62
1507586605.77,54172,11.06,73108.8,-10.35,-11.37,-11.59,0,*6A
1507586607.04,54173,11.06,73094.5,-10.35,-11.59,-11.63,0,*6A
1507586608.31,54174,11.06,73118.3,-10.35,-11.59,-11.59,0,*64
1507586609.57,54175,11.06,73110.5,-10.35,-11.51,-11.59,0,*6D
1507586610.83,54176,11.06,73114.5,-10.35,-11.51,-11.59,0,*6E
1507586612.09,54177,11.06,73104.8,-10.35,-11.51,-11.59,0,*6F
1507586613.36,54178,11.06,73108.0,-10.35,-11.51,-11.63,0,*69
1507586614.66,54179,11.06,73114.3,-10.37,-11.55,-11.55,0,*6B
1507586615.92,54180,11.06,73118.5,-10.35,-11.51,-11.51,0,*6F
1507586617.21,54181,11.06,73122.0,-10.37,-11.51,-11.63,0,*6D
1507586618.48,54182,11.06,73116.0,-10.35,-11.59,-11.59,0,*6D
1507586619.78,54183,11.06,73112.8,-10.37,-11.51,-11.63,0,*6F
1507586621.02,54184,11.06,73118.5,-10.35,-11.41,-11.55,0,*6E
1507586622.27,54185,11.06,73122.0,-10.35,-11.45,-11.51,0,*6F
1507586623.49,54186,11.06,73130.3,-10.35,-11.45,-11.45,0,*69
1507586624.74,54187,11.06,73138.0,-10.35,-11.45,-11.59,0,*65
1507586626.04,54188,11.06,73134.8,-10.37,-11.55,-11.63,0,*60
1507586627.3,54189,11.06,73136.0,-10.35,-11.51,-11.51,0,*66
1507586628.57,54190,11.06,73124.0,-10.35,-11.51,-11.63,0,*6F
1507586629.86,54191,11.06,73132.3,-10.37,-11.55,-11.67,0,*6C
1507586631.16,54192,11.06,73118.5,-10.37,-11.51,-11.63,0,*6F
1507586632.43,54193,11.06,73124.3,-10.35,-11.37,-11.63,0,*6C
1507586633.73,54194,11.06,73126.8,-10.37,-11.63,-11.63,0,*68
1507586635.02,54195,11.06,73152.8,-10.37,-11.51,-11.63,0,*68
1507586636.29,54196,11.06,73130.8,-10.35,-11.59,-11.59,0,*68
1507586637.58,54197,11.06,73128.3,-10.37,-11.51,-11.59,0,*63
1507586638.84,54198,11.06,73118.8,-10.35,-11.37,-11.51,0,*66
1507586640.08,54199,11.06,73120.0,-10.35,-11.33,-11.45,0,*66
1507586641.35,54200,11.06,73114.5,-10.37,-11.41,-11.51,0,*67
1507586642.59,54201,11.06,73116.0,-10.35,-11.37,-11.45,0,*60
1507586643.86,54202,11.06,73116.5,-10.35,-11.33,-11.37,0,*62
1507586645.12,54203,11.06,73142.3,-10.35,-11.33,-11.37,0,*63
1507586646.34,54204,11.06,73144.0,-10.35,-11.23,-11.45,0,*60
1507586647.56,54205,11.06,73140.5,-10.35,-11.23,-11.45,0,*61
1507586648.8,54206,11.06,73140.3,-10.35,-11.23,-11.37,0,*67
1507586650.04,54207,11.06,73142.5,-10.35,-11.33,-11.45,0,*62
1507586651.32,54208,11.06,73140.3,-10.33,-11.37,-11.51,0,*6A
1507586652.61,54209,11.06,73140.5,-10.33,-11.37,-11.51,0,*6B
1507586653.88,54210,11.06,73140.3,-10.33,-11.45,-11.51,0,*66
1507586655.16,54211,11.06,73136.3,-10.33,-11.45,-11.63,0,*66
1507586656.44,54212,11.06,73140.3,-10.33,-11.37,-11.51,0,*61
1507586657.71,54213,11.06,73140.8,-10.33,-11.45,-11.51,0,*65
1507586658.98,54214,11.06,73146.8,-10.33,-11.45,-11.51,0,*62
1507586660.25,54215,11.06,73140.8,-10.33,-11.45,-11.59,0,*6B
1507586661.54,54216,11.06,73136.0,-10.33,-11.51,-11.59,0,*6D
1507586662.78,54217,11.06,73138.8,-10.35,-11.37,-11.45,0,*67
1507586664.02,54218,11.06,73140.5,-10.35,-11.45,-11.59,0,*60
1507586665.27,54219,11.06,73132.0,-10.35,-11.45,-11.59,0,*61
1507586666.53,54220,11.06,73136.3,-10.35,-11.51,-11.59,0,*6E
1507586667.8,54221,11.06,73114.3,-10.35,-11.59,-11.73,0,*6F
1507586669.07,54222,11.06,73122.3,-10.35,-11.59,-11.59,0,*64
1507586670.33,54223,11.06,73132.3,-10.35,-11.59,-11.59,0,*65
1507586671.6,54224,11.06,73130.0,-10.35,-11.51,-11.63,0,*63
1507586672.85,54225,11.06,73124.0,-10.35,-11.45,-11.59,0,*6E
1507586674.14,54226,11.06,73128.0,-10.33,-11.51,-11.73,0,*66
1507586675.41,54227,11.06,73130.3,-10.35,-11.59,-11.63,0,*68
1507586676.68,54228,11.06,73128.8,-10.35,-11.51,-11.63,0,*6F
1507586677.94,54229,11.06,73124.8,-10.35,-11.59,-11.73,0,*67
1507586679.21,54230,11.06,73128.8,-10.35,-11.59,-11.73,0,*6F
1507586680.48,54231,11.06,73128.8,-10.35,-11.59,-11.73,0,*6E
1507586681.74,54232,11.06,73134.0,-10.35,-11.59,-11.73,0,*6D
1507586683.02,54233,11.06,73130.5,-10.35,-11.59,-11.63,0,*6D
1507586684.29,54234,11.06,73130.0,-10.35,-11.59,-11.63,0,*6A
1507586685.56,54235,11.06,73134.0,-10.35,-11.59,-11.63,0,*6B
1507586686.83,54236,11.06,73130.5,-10.35,-11.63,-11.73,0,*60
1507586688.09,54237,11.06,73132.3,-10.35,-11.59,-11.73,0,*68
1507586689.37,54238,11.06,73136.0,-10.35,-11.59,-11.63,0,*66
1507586690.64,54239,11.06,73134.3,-10.35,-11.59,-11.63,0,*67
1507586691.91,54240,11.06,73132.8,-10.35,-11.63,-11.63,0,*60
1507586693.21,54241,11.06,73128.8,-10.37,-11.55,-11.67,0,*62
1507586694.48,54242,11.06,73134.0,-10.35,-11.59,-11.63,0,*6B
1507586695.77,54243,11.06,73130.5,-10.37,-11.63,-11.77,0,*64
1507586697.06,54244,11.06,73136.3,-10.37,-11.63,-11.81,0,*6A
1507586698.33,54245,11.06,73136.8,-10.35,-11.59,-11.77,0,*69
1507586699.6,54246,11.06,73134.8,-10.35,-11.63,-11.73,0,*67
1507586700.86,54247,11.06,73126.3,-10.35,-11.63,-11.73,0,*66
1507586702.15,54248,11.06,73130.3,-10.37,-11.63,-11.77,0,*6F
1507586703.45,54249,11.06,73134.3,-10.37,-11.63,-11.81,0,*67
1507586704.74,54250,11.06,73132.5,-10.37,-11.55,-11.67,0,*62
1507586706.04,54251,11.06,73134.3,-10.37,-11.63,-11.67,0,*66
1507586707.33,54252,11.06,73134.0,-10.37,-11.55,-11.67,0,*60
1507586708.63,54253,11.06,73134.5,-10.37,-11.55,-11.67,0,*61
1507586709.93,54254,11.06,73134.0,-10.37,-11.63,-11.67,0,*63
1507586711.22,54255,11.06,73132.3,-10.37,-11.63,-11.77,0,*63
1507586712.51,54256,11.06,73132.5,-10.37,-11.55,-11.77,0,*65
1507586713.8,54257,11.06,73134.0,-10.37,-11.63,-11.77,0,*61
1507586715.1,54258,11.06,73136.5,-10.37,-11.63,-11.67,0,*6F
1507586716.39,54259,11.06,73134.5,-10.37,-11.55,-11.67,0,*6B
1507586717.69,54260,11.06,73136.3,-10.37,-11.55,-11.67,0,*61
1507586718.99,54261,11.06,73140.3,-10.37,-11.55,-11.67,0,*60
1507586720.28,54262,11.06,73146.3,-10.37,-11.55,-11.63,0,*67
1507586721.53,54263,11.06,73144.5,-10.35,-11.45,-11.73,0,*64
1507586722.8,54264,11.06,73152.0,-10.35,-11.51,-11.63,0,*67
1507586724.07,54265,11.06,73138.0,-10.35,-11.55,-11.67,0,*66
1507586725.31,54266,11.06,73124.3,-10.35,-11.45,-11.51,0,*61
1507586726.56,54267,11.06,73130.0,-10.35,-11.45,-11.59,0,*68
1507586727.85,54268,11.06,73136.8,-10.37,-11.63,-11.77,0,*6D
1507586729.14,54269,11.06,73134.8,-10.37,-11.55,-11.77,0,*69
1507586730.44,54270,11.06,73132.5,-10.37,-11.63,-11.67,0,*65
1507586731.73,54271,11.06,73138.5,-10.37,-11.55,-11.67,0,*61
1507586733.03,54272,11.06,73138.3,-10.37,-11.55,-11.67,0,*62
1507586734.33,54273,11.06,73124.0,-10.37,-11.55,-11.67,0,*63
1507586735.59,54274,11.06,73128.8,-10.35,-11.51,-11.63,0,*66
1507586736.89,54275,11.06,73130.8,-10.37,-11.55,-11.77,0,*64
1507586738.16,54276,11.06,73132.0,-10.37,-11.41,-11.63,0,*67
1507586739.46,54277,11.06,73116.8,-10.37,-11.63,-11.63,0,*66
1507586740.73,54278,11.06,73118.3,-10.35,-11.51,-11.63,0,*6A
1507586742.02,54279,11.06,73134.3,-10.37,-11.51,-11.55,0,*6C
1507586743.32,54280,11.06,73124.0,-10.37,-11.51,-11.67,0,*6B
1507586744.62,54281,11.06,73130.5,-10.37,-11.55,-11.63,0,*6A
1507586745.88,54282,11.06,73136.0,-10.35,-11.59,-11.59,0,*6E
1507586747.16,54283,11.06,73140.8,-10.37,-11.41,-11.67,0,*69
1507586748.45,54284,11.06,73138.5,-10.37,-11.55,-11.63,0,*6F
1507586749.75,54285,11.06,73132.5,-10.37,-11.55,-11.63,0,*6E
1507586751.05,54286,11.06,73122.0,-10.37,-11.55,-11.63,0,*6D
1507586752.35,54287,11.06,73130.8,-10.37,-11.55,-11.67,0,*68
1507586753.61,54288,11.06,73134.0,-10.35,-11.51,-11.73,0,*64
1507586754.91,54289,11.06,73132.3,-10.37,-11.55,-11.55,0,*67
1507586756.17,54290,11.06,73138.0,-10.35,-11.51,-11.51,0,*6D
1507586757.47,54291,11.06,73130.8,-10.37,-11.55,-11.63,0,*6B
1507586758.73,54292,11.06,73132.0,-10.35,-11.51,-11.59,0,*67
1507586760.03,54293,11.06,73132.8,-10.37,-11.55,-11.63,0,*69
1507586761.32,54294,11.06,73134.3,-10.37,-11.51,-11.67,0,*6E
1507586762.59,54295,11.06,73128.0,-10.35,-11.51,-11.63,0,*69
1507586763.86,54296,11.06,73126.8,-10.35,-11.51,-11.59,0,*63
1507586765.12,54297,11.06,73130.3,-10.35,-11.51,-11.73,0,*6A
1507586766.42,54298,11.06,73136.3,-10.37,-11.63,-11.63,0,*67
1507586767.71,54299,11.06,73138.0,-10.37,-11.63,-11.77,0,*63
1507586769.01,54300,11.06,73142.0,-10.37,-11.67,-11.67,0,*67
1507586770.3,54301,11.06,73134.5,-10.37,-11.55,-11.77,0,*66
1507586771.59,54302,11.06,73138.5,-10.37,-11.55,-11.67,0,*64
1507586772.88,54303,11.06,73136.5,-10.37,-11.63,-11.77,0,*61
1507586774.18,54304,11.06,73138.5,-10.37,-11.55,-11.67,0,*62
1507586775.48,54305,11.06,73136.5,-10.37,-11.55,-11.67,0,*63
1507586776.77,54306,11.06,73138.5,-10.37,-11.55,-11.77,0,*61
1507586778.04,54307,11.06,73136.5,-10.37,-11.41,-11.55,0,*65
1507586779.33,54308,11.06,73140.0,-10.37,-11.51,-11.55,0,*6B
1507586780.6,54309,11.06,73140.5,-10.35,-11.59,-11.63,0,*65
1507586781.85,54310,11.06,73142.0,-10.35,-11.45,-11.59,0,*69
1507586783.12,54311,11.06,73148.5,-10.37,-11.41,-11.55,0,*62
1507586784.39,54312,11.06,73150.3,-10.35,-11.51,-11.63,0,*67
1507586785.64,54313,11.06,73152.5,-10.35,-11.45,-11.59,0,*6A
1507586786.93,54314,11.06,73152.8,-10.37,-11.55,-11.67,0,*63
1507586788.21,54315,11.06,73158.5,-10.35,-11.59,-11.63,0,*68
1507586789.48,54316,11.06,73154.8,-10.35,-11.55,-11.63,0,*67
1507586790.75,54317,11.06,73146.5,-10.35,-11.51,-11.63,0,*62
1507586792.04,54318,11.06,73150.3,-10.37,-11.63,-11.77,0,*6B
1507586793.33,54319,11.06,73142.0,-10.37,-11.63,-11.77,0,*6A
1507586794.63,54320,11.0,73116.3,-10.37,-11.63,-11.67,0,*61
1507586795.9,54321,11.06,73134.8,-10.35,-11.59,-11.63,0,*6F
1507586797.17,54322,11.06,73136.5,-10.35,-11.51,-11.63,0,*64
1507586798.44,54323,11.06,73140.8,-10.35,-11.63,-11.63,0,*64
1507586799.73,54324,11.06,73140.8,-10.37,-11.63,-11.77,0,*64
1507586801.0,54325,11.06,73144.5,-10.35,-11.63,-11.77,0,*67
1507586802.27,54326,11.06,73146.5,-10.35,-11.59,-11.63,0,*68
1507586803.54,54327,11.06,73144.5,-10.35,-11.51,-11.63,0,*61
1507586804.84,54328,11.06,73136.0,-10.37,-11.55,-11.67,0,*6C
1507586806.13,54329,11.06,73134.5,-10.37,-11.63,-11.67,0,*68
1507586807.42,54330,11.06,73134.5,-10.37,-11.55,-11.77,0,*64
1507586808.69,54331,11.06,73130.5,-10.35,-11.59,-11.73,0,*6F
1507586809.96,54332,11.06,73132.0,-10.35,-11.63,-11.67,0,*60
1507586811.23,54333,11.06,73136.0,-10.35,-11.51,-11.63,0,*64
1507586812.53,54334,11.06,73138.5,-10.37,-11.55,-11.67,0,*61
1507586813.82,54335,11.06,73136.3,-10.37,-11.55,-11.55,0,*61
1507586815.12,54336,11.06,73140.5,-10.37,-11.55,-11.67,0,*63
1507586816.41,54337,11.06,73140.3,-10.37,-11.51,-11.63,0,*62
1507586817.68,54338,11.06,73142.5,-10.35,-11.51,-11.63,0,*6F
1507586818.95,54339,11.06,73148.0,-10.35,-11.59,-11.63,0,*66
1507586820.25,54340,11.06,73144.5,-10.37,-11.63,-11.77,0,*66
1507586821.54,54341,11.06,73150.5,-10.37,-11.63,-11.77,0,*67
1507586822.83,54342,11.06,73150.0,-10.37,-11.67,-11.77,0,*60
1507586824.1,54343,11.0,73148.8,-10.35,-11.59,-11.73,0,*6A
1507586825.39,54344,11.06,73154.0,-10.37,-11.55,-11.77,0,*67
1507586826.65,54345,11.06,73142.0,-10.35,-11.67,-11.77,0,*65
1507586827.92,54346,11.06,73136.5,-10.35,-11.63,-11.73,0,*66
1507586829.19,54347,11.06,73138.8,-10.35,-11.51,-11.63,0,*67
1507586830.48,54348,11.06,73126.8,-10.37,-11.55,-11.77,0,*6B
1507586831.77,54349,11.06,73120.0,-10.37,-11.63,-11.77,0,*6F
1507586833.06,54350,11.06,73116.5,-10.37,-11.67,-11.77,0,*63
1507586834.33,54351,11.06,73124.8,-10.35,-11.63,-11.73,0,*60
1507586835.62,54352,11.06,73128.0,-10.37,-11.67,-11.77,0,*61
1507586836.91,54353,11.06,73128.3,-10.37,-11.67,-11.81,0,*69
1507586838.17,54354,11.06,73132.3,-10.35,-11.73,-11.77,0,*60
1507586839.46,54355,11.06,73122.8,-10.37,-11.67,-11.81,0,*6F
1507586840.75,54356,11.06,73116.8,-10.37,-11.63,-11.77,0,*61
1507586842.04,54357,11.06,73120.5,-10.37,-11.55,-11.77,0,*65
1507586843.33,54358,11.06,73128.3,-10.37,-11.55,-11.77,0,*6A
1507586844.62,54359,11.06,73140.3,-10.37,-11.67,-11.77,0,*6A
1507586845.91,54360,11.06,73146.3,-10.37,-11.67,-11.77,0,*60
1507586847.19,54361,11.06,73154.8,-10.35,-11.59,-11.63,0,*6B
1507586848.48,54362,11.06,73150.3,-10.37,-11.63,-11.77,0,*66
1507586849.77,54363,11.06,73138.0,-10.37,-11.67,-11.77,0,*63
1507586851.06,54364,11.06,73134.5,-10.37,-11.77,-11.77,0,*65
1507586852.35,54365,11.06,73136.0,-10.37,-11.55,-11.67,0,*65
1507586853.65,54366,11.06,73142.3,-10.41,-11.67,-11.73,0,*63
1507586854.94,54367,11.06,73136.5,-10.41,-11.67,-11.81,0,*6F
1507586856.24,54368,11.06,73124.5,-10.37,-11.55,-11.67,0,*68
1507586857.53,54369,11.06,73124.8,-10.37,-11.55,-11.77,0,*68
1507586858.82,54370,11.06,73126.5,-10.37,-11.63,-11.77,0,*65
1507586860.12,54371,11.06,73122.8,-10.41,-11.67,-11.73,0,*65
1507586861.42,54372,11.06,73136.8,-10.41,-11.67,-11.85,0,*6F
1507586862.71,54373,11.06,73126.5,-10.37,-11.67,-11.77,0,*62
1507586864.0,54374,11.06,73108.5,-10.37,-11.67,-11.77,0,*65
1507586865.29,54375,11.06,73122.3,-10.41,-11.67,-11.81,0,*6C
1507586866.58,54376,11.06,73118.8,-10.37,-11.63,-11.77,0,*63
1507586867.88,54377,11.06,73104.8,-10.37,-11.63,-11.77,0,*62
1507586869.17,54378,11.06,73108.3,-10.37,-11.63,-11.77,0,*6D
1507586870.46,54379,11.06,73132.8,-10.37,-11.51,-11.63,0,*68
1507586871.75,54380,11.06,73146.3,-10.37,-11.37,-11.51,0,*6F
1507586873.03,54381,11.06,73144.3,-10.41,-11.41,-11.55,0,*6A
1507586874.32,54382,11.06,73132.8,-10.37,-11.51,-11.73,0,*6D
1507586875.61,54383,11.06,73138.3,-10.37,-11.51,-11.55,0,*68
1507586876.91,54384,11.06,73144.0,-10.37,-11.51,-11.63,0,*6A
1507586878.2,54385,11.06,73138.5,-10.37,-11.51,-11.63,0,*6B
1507586879.49,54386,11.06,73142.3,-10.37,-11.55,-11.77,0,*69
1507586880.79,54387,11.06,73122.3,-10.41,-11.59,-11.73,0,*61
1507586882.09,54388,11.06,73120.0,-10.41,-11.59,-11.67,0,*6B
1507586883.39,54389,11.06,73132.3,-10.37,-11.55,-11.67,0,*67
1507586884.68,54390,11.06,73132.0,-10.37,-11.55,-11.77,0,*6E
1507586885.97,54391,11.06,73138.0,-10.37,-11.55,-11.67,0,*6E
1507586887.27,54392,11.06,73132.3,-10.37,-11.55,-11.67,0,*6D
1507586888.56,54393,11.06,73136.0,-10.37,-11.63,-11.67,0,*69
1507586889.86,54394,11.06,73134.5,-10.37,-11.63,-11.77,0,*6F
1507586891.15,54395,11.06,73128.8,-10.37,-11.55,-11.67,0,*6A
1507586892.45,54396,11.06,73140.3,-10.37,-11.55,-11.67,0,*69
1507586893.74,54397,11.06,73132.0,-10.37,-11.51,-11.67,0,*6C
1507586895.01,54398,11.06,73142.3,-10.35,-11.51,-11.63,0,*65
1507586896.28,54399,11.0,73138.0,-10.35,-11.51,-11.63,0,*64
1507586897.57,54400,11.06,73138.5,-10.37,-11.55,-11.55,0,*60
1507586898.87,54401,11.06,73138.0,-10.37,-11.55,-11.67,0,*60
1507586900.17,54402,11.06,73134.8,-10.37,-11.55,-11.67,0,*63
1507586901.46,54403,11.06,73140.0,-10.37,-11.55,-11.77,0,*63